CW7186 Weather Reports


time (UTC)temp
F
wind
direction
speed
knots
gust
knots
rain 1hr
in
rain 24hr
in
rain mn
in
humidity
%
barometer
mb
20260506161557 68 222 4.3 13.9 0.00 0.00 0.00 68 1008.7
20260506160103 68 215 2.6 13.9 0.00 0.00 0.00 67 1009.1
20260506154557 69 283 5.2 14.8 0.00 0.00 0.00 65 1008.8
20260506153100 70 247 4.3 13.9 0.00 0.00 0.00 61 1008.9
20260506151600 71 205 3.5 13.0 0.00 0.00 0.00 59 1008.8
20260506150058 70 261 4.3 15.6 0.00 0.00 0.00 59 1008.9
20260506144607 70 0 4.3 13.9 0.00 0.00 0.00 59 1009.0
20260506143053 71 222 3.5 14.8 0.00 0.00 0.00 59 1009.0
20260506141553 71 215 2.6 16.5 0.00 0.00 0.00 59 1008.8
20260506140054 71 256 3.5 9.6 0.00 0.00 0.00 60 1008.9
20260506134555 71 261 2.6 12.2 0.00 0.00 0.00 61 1008.8
20260506133100 71 283 1.7 13.0 0.00 0.00 0.00 60 1008.8
20260506131557 71 207 5.2 13.9 0.00 0.00 0.00 61 1009.1
20260506130054 70 203 3.5 13.0 0.00 0.00 0.00 63 1009.2
20260506124551 69 225 5.2 14.8 0.00 0.00 0.00 64 1009.2
20260506123054 69 224 3.5 13.0 0.00 0.00 0.00 67 1009.0
20260506121553 67 273 1.7 11.3 0.00 0.00 0.00 69 1009.2
20260506120056 67 215 3.5 8.7 0.00 0.00 0.00 69 1009.2
20260506114558 66 232 2.6 13.0 0.00 0.00 0.00 69 1009.4
20260506113054 67 225 4.3 15.6 0.00 0.00 0.00 68 1009.4
20260506111557 66 144 2.6 12.2 0.00 0.00 0.00 70 1009.5
20260506110055 65 248 4.3 13.0 0.00 0.00 0.00 71 1009.4
20260506104559 65 181 4.3 10.4 0.00 0.00 0.00 72 1009.3
20260506103055 64 187 2.6 10.4 0.00 0.00 0.00 74 1009.3
20260506101601 64 0 1.7 7.8 0.00 0.00 0.00 75 1009.4
20260506100107 64 217 3.5 9.6 0.00 0.00 0.00 75 1009.2
20260506094615 64 211 0.9 13.0 0.00 0.00 0.00 75 1009.2
20260506093103 64 187 2.6 7.8 0.00 0.00 0.00 75 1009.0
20260506091604 64 184 2.6 8.7 0.00 0.00 0.00 75 1009.2
20260506084557 65 184 1.7 9.6 0.00 0.00 0.00 75 1009.5
20260506083103 65 0 1.7 7.0 0.00 0.00 0.00 75 1009.5
20260506081556 65 205 1.7 7.8 0.00 0.00 0.00 74 1009.6
20260506080109 65 0 1.7 6.1 0.00 0.00 0.00 74 1009.6
20260506073108 66 205 0.9 12.2 0.00 0.00 0.00 73 1009.5
20260506071552 66 223 3.5 9.6 0.00 0.00 0.00 72 1009.5
20260506061601 67 183 3.5 11.3 0.00 0.00 0.00 70 1009.6
20260506044553 68 261 2.6 10.4 0.00 0.00 0.00 66 1010.0
20260506043052 69 229 2.6 9.6 0.00 0.00 0.00 65 1010.0
20260506041556 69 223 1.7 9.6 0.00 0.00 0.00 64 1009.9
20260506040055 69 214 5.2 14.8 0.00 0.00 0.00 63 1009.9
20260506034554 69 175 4.3 10.4 0.00 0.00 0.00 63 1009.8
20260506033106 69 197 2.6 13.0 0.00 0.00 0.00 63 1009.9
20260506031555 69 219 3.5 11.3 0.00 0.00 0.00 62 1009.8
20260506030059 69 217 3.5 9.6 0.00 0.00 0.00 62 1009.8
20260506024608 69 190 3.5 13.0 0.00 0.00 0.00 61 1009.8
20260506023102 69 0 3.5 10.4 0.00 0.00 0.00 59 1009.9
20260506021559 70 200 4.3 11.3 0.00 0.00 0.00 58 1010.0
20260506020100 70 221 2.6 16.5 0.00 0.00 0.00 57 1009.9
20260506014555 70 233 3.5 11.3 0.00 0.00 0.00 56 1009.8
20260506013101 71 213 3.5 9.6 0.00 0.00 0.00 55 1009.5
20260506011621 72 202 3.5 10.4 0.00 0.00 0.00 54 1009.5
20260506010115 73 217 4.3 12.2 0.00 0.00 0.00 53 1009.4
20260506004554 73 269 6.1 13.0 0.00 0.00 0.00 52 1009.4
20260506003057 74 161 5.2 14.8 0.00 0.00 0.00 50 1009.3
20260506001601 75 249 4.3 11.3 0.00 0.00 0.00 48 1009.2
20260506000100 75 182 2.6 11.3 0.00 0.00 0.00 46 1009.0
20260505234556 76 162 2.6 13.0 0.00 0.00 0.00 43 1008.8
20260505233056 78 196 2.6 14.8 0.00 0.00 0.00 40 1008.7
20260505231557 79 202 4.3 16.5 0.00 0.00 0.00 38 1008.7
20260505224558 81 201 7.8 15.6 0.00 0.00 0.00 36 1008.2
20260505223100 81 232 5.2 21.7 0.00 0.00 0.00 35 1008.0
20260505221604 82 290 3.5 13.9 0.00 0.00 0.00 34 1007.8
20260505220108 82 219 4.3 18.2 0.00 0.00 0.00 34 1007.8
20260505214602 83 222 6.1 19.1 0.00 0.00 0.00 32 1007.8
20260505213057 83 240 4.3 18.2 0.00 0.00 0.00 31 1007.7
20260505211602 83 100 6.1 17.4 0.00 0.00 0.00 31 1007.5
20260505210103 83 99 5.2 24.3 0.00 0.00 0.00 32 1007.2
20260505204612 84 286 5.2 18.2 0.00 0.00 0.00 31 1007.3
20260505203052 84 188 7.0 18.2 0.00 0.00 0.00 31 1007.5
20260505201553 84 260 3.5 22.6 0.00 0.00 0.00 33 1007.6
20260505200054 83 226 8.7 23.5 0.00 0.00 0.00 32 1007.5
20260505194600 84 205 6.1 17.4 0.00 0.00 0.00 33 1007.6
20260505193054 84 256 7.8 18.2 0.00 0.00 0.00 34 1007.9
20260505191554 84 179 6.1 19.1 0.00 0.00 0.00 32 1007.9
20260505190056 84 248 6.1 20.0 0.00 0.00 0.00 33 1008.3
20260505184555 83 253 7.8 18.2 0.00 0.00 0.00 34 1008.4
20260505183057 84 190 4.3 16.5 0.00 0.00 0.00 36 1008.3
20260505181555 84 170 4.3 13.9 0.00 0.00 0.00 34 1008.7
20260505180055 83 326 4.3 13.9 0.00 0.00 0.00 38 1008.8
20260505174557 83 227 3.5 14.8 0.00 0.00 0.00 36 1009.1
20260505173053 82 0 2.6 12.2 0.00 0.00 0.00 40 1009.0
20260505171600 83 206 2.6 11.3 0.00 0.00 0.00 37 1009.4
20260505170055 82 290 3.5 9.6 0.00 0.00 0.00 39 1009.4
20260505164602 81 217 2.6 13.0 0.00 0.00 0.00 39 1009.5
20260505163054 80 207 3.5 13.0 0.00 0.00 0.00 42 1009.5